1521226800.35,50206,8.88,71826.5,-6.63,-7.49,-7.43,0,*58
1521226801.59,50207,8.88,71820.3,-6.63,-7.49,-7.43,0,*59
1521226802.84,50208,8.88,71824.5,-6.63,-7.49,-7.43,0,*56
1521226804.06,50209,8.88,71824.0,-6.61,-7.43,-7.49,0,*55
1521226805.31,50210,8.88,71818.3,-6.61,-7.43,-7.57,0,*52
1521226806.53,50211,8.88,71820.0,-6.61,-7.43,-7.49,0,*5C
1521226807.81,50212,8.88,71814.3,-6.63,-7.43,-7.57,0,*52
1521226809.03,50213,8.88,71816.0,-6.61,-7.43,-7.49,0,*5E
1521226810.28,50214,8.88,71816.5,-6.63,-7.43,-7.49,0,*5B
1521226811.52,50215,8.88,71816.3,-6.63,-7.43,-7.49,0,*5A
1521226812.77,50216,8.88,71818.5,-6.63,-7.49,-7.57,0,*5C
1521226813.99,50217,8.88,71816.3,-6.63,-7.49,-7.49,0,*52
1521226815.21,50218,8.88,71814.8,-6.63,-7.49,-7.49,0,*5D
1521226816.4,50219,8.88,71812.8,-6.61,-7.49,-7.49,0,*5E
1521226817.61,50220,8.88,71812.0,-6.63,-7.49,-7.49,0,*56
1521226818.83,50221,8.88,71814.3,-6.63,-7.49,-7.49,0,*57
1521226820.02,50222,8.88,71816.3,-6.61,-7.49,-7.49,0,*56
1521226821.24,50223,8.88,71814.8,-6.63,-7.49,-7.49,0,*55
1521226822.46,50224,8.88,71810.0,-6.61,-7.43,-7.49,0,*5A
1521226823.71,50225,8.88,71816.3,-6.63,-7.49,-7.57,0,*5C
1521226824.9,50226,8.88,71820.0,-6.61,-7.49,-7.49,0,*52
1521226826.12,50227,8.88,71814.0,-6.63,-7.49,-7.49,0,*51
1521226827.34,50228,8.88,71814.5,-6.63,-7.49,-7.49,0,*5E
1521226828.55,50229,8.88,71810.0,-6.63,-7.49,-7.49,0,*5F
1521226829.74,50230,8.88,71812.5,-6.61,-7.49,-7.49,0,*55
1521226830.96,50231,8.88,71802.5,-6.63,-7.49,-7.49,0,*56
1521226832.18,50232,8.88,71806.5,-6.63,-7.49,-7.49,0,*55
1521226833.4,50233,8.88,71804.3,-6.63,-7.49,-7.49,0,*54
1521226834.62,50234,8.88,71814.8,-6.63,-7.49,-7.49,0,*53
1521226835.84,50235,8.88,71816.0,-6.61,-7.49,-7.43,0,*5A
1521226837.06,50236,8.88,71818.3,-6.61,-7.49,-7.43,0,*59
1521226838.31,50237,8.88,71814.0,-6.63,-7.49,-7.43,0,*5A
1521226839.53,50238,8.88,71820.8,-6.63,-7.49,-7.49,0,*5F
1521226840.72,50239,8.88,71824.8,-6.61,-7.49,-7.49,0,*5C
1521226841.91,50240,8.88,71820.8,-6.61,-7.49,-7.49,0,*52
1521226843.13,50241,8.88,71818.5,-6.63,-7.49,-7.49,0,*51
1521226844.34,50242,8.88,71822.5,-6.63,-7.49,-7.49,0,*52
1521226845.54,50243,8.88,71820.0,-6.61,-7.49,-7.49,0,*51
1521226846.75,50244,8.88,71818.8,-6.63,-7.49,-7.49,0,*54
1521226847.97,50245,8.88,71820.3,-6.63,-7.49,-7.49,0,*55
1521226849.19,50246,8.88,71824.5,-6.63,-7.49,-7.49,0,*56
1521226850.41,50247,8.88,71826.5,-6.63,-7.49,-7.49,0,*57
1521226851.62,50248,8.88,71822.3,-6.63,-7.49,-7.49,0,*58
1521226852.84,50249,8.88,71820.5,-6.63,-7.49,-7.49,0,*59
1521226854.06,50250,8.88,71820.0,-6.63,-7.49,-7.49,0,*51
1521226855.25,50251,8.88,71812.0,-6.61,-7.49,-7.49,0,*52
1521226856.47,50252,8.88,71820.0,-6.63,-7.49,-7.49,0,*53
1521226857.66,50253,8.88,71826.5,-6.61,-7.49,-7.49,0,*50
1521226858.88,50254,8.88,71824.3,-6.63,-7.49,-7.49,0,*55
1521226860.1,50255,8.88,71826.8,-6.63,-7.49,-7.49,0,*54
1521226861.31,50256,8.88,71830.0,-6.63,-7.49,-7.49,0,*57
1521226862.53,50257,8.88,71822.3,-6.63,-7.49,-7.49,0,*56
1521226863.75,50258,8.88,71828.0,-6.63,-7.49,-7.49,0,*59
1521226864.97,50259,8.88,71824.0,-6.63,-7.49,-7.49,0,*58
1521226866.19,50260,8.88,71822.3,-6.63,-7.49,-7.49,0,*52
1521226867.4,50261,8.88,71824.8,-6.63,-7.49,-7.49,0,*53
1521226868.62,50262,8.88,71820.0,-6.63,-7.49,-7.49,0,*50
1521226869.87,50263,8.88,71820.8,-6.63,-7.49,-7.43,0,*5B
1521226871.12,50264,8.88,71826.5,-6.63,-7.49,-7.43,0,*5C
1521226872.37,50265,8.88,71824.8,-6.63,-7.49,-7.43,0,*5D
1521226873.59,50266,8.88,71822.0,-6.63,-7.49,-7.49,0,*54
1521226874.8,50267,8.88,71816.8,-6.63,-7.49,-7.49,0,*55
1521226876.0,50268,8.88,71818.8,-6.65,-7.53,-7.53,0,*5C
1521226877.22,50269,8.88,71822.5,-6.63,-7.49,-7.49,0,*5B
1521226878.43,50270,8.88,71818.5,-6.63,-7.49,-7.49,0,*53
1521226879.65,50271,8.88,71820.3,-6.63,-7.49,-7.49,0,*52
1521226880.87,50272,8.88,71812.5,-6.63,-7.49,-7.49,0,*51
1521226882.09,50273,8.88,71816.8,-6.63,-7.49,-7.49,0,*50
1521226883.3,50274,8.88,71814.5,-6.63,-7.49,-7.49,0,*57
1521226884.52,50275,8.88,71814.8,-6.63,-7.49,-7.49,0,*56
1521226885.74,50276,8.88,71820.0,-6.63,-7.49,-7.49,0,*55
1521226886.93,50277,8.88,71816.0,-6.61,-7.49,-7.49,0,*56
1521226888.15,50278,8.88,71822.8,-6.63,-7.49,-7.49,0,*5B
1521226889.37,50279,8.88,71822.5,-6.63,-7.49,-7.49,0,*5A
1521226890.59,50280,8.88,71822.0,-6.63,-7.49,-7.49,0,*5C
1521226891.8,50281,8.88,71818.0,-6.61,-7.49,-7.57,0,*50
1521226892.99,50282,8.88,71814.0,-6.61,-7.49,-7.49,0,*5C
1521226894.25,50283,8.88,71818.5,-6.63,-7.57,-7.49,0,*50
1521226895.46,50284,8.88,71814.5,-6.63,-7.49,-7.49,0,*58
1521226896.71,50285,8.88,71814.3,-6.63,-7.49,-7.57,0,*56
1521226897.93,50286,8.88,71814.8,-6.63,-7.49,-7.49,0,*5A
1521226899.15,50287,8.88,71818.0,-6.63,-7.49,-7.49,0,*5B
1521226900.36,50288,8.88,71814.3,-6.63,-7.49,-7.49,0,*54
1521226901.58,50289,8.88,71814.3,-6.63,-7.49,-7.49,0,*55
1521226902.8,50290,8.88,71816.8,-6.65,-7.61,-7.53,0,*5A
1521226904.02,50291,8.88,71812.8,-6.63,-7.49,-7.49,0,*5C
1521226905.24,50292,8.88,71814.5,-6.63,-7.49,-7.49,0,*5F
1521226906.46,50293,8.88,71814.3,-6.63,-7.49,-7.49,0,*5E
1521226907.68,50294,8.88,71816.5,-6.63,-7.49,-7.49,0,*59
1521226908.89,50295,8.88,71814.0,-6.63,-7.49,-7.49,0,*58
1521226910.11,50296,8.88,71808.3,-6.63,-7.49,-7.49,0,*5B
1521226911.3,50297,8.88,71810.8,-6.61,-7.49,-7.49,0,*58
1521226912.52,50298,8.88,71814.8,-6.63,-7.49,-7.49,0,*55
1521226913.71,50299,8.88,71822.5,-6.65,-7.53,-7.53,0,*52
1521226914.93,50300,8.88,71816.8,-6.65,-7.61,-7.53,0,*52
1521226916.16,50301,8.88,71814.5,-6.65,-7.61,-7.53,0,*53
1521226917.38,50302,8.88,71812.5,-6.65,-7.61,-7.53,0,*50
1521226918.63,50303,8.88,71818.3,-6.63,-7.57,-7.49,0,*59
1521226919.85,50304,8.88,71804.3,-6.63,-7.49,-7.49,0,*51
1521226921.07,50305,8.88,71804.0,-6.63,-7.49,-7.49,0,*50
1521226922.26,50306,8.88,71812.5,-6.65,-7.53,-7.53,0,*55
1521226923.48,50307,8.88,71818.0,-6.63,-7.49,-7.49,0,*52
1521226924.69,50308,8.88,71822.0,-6.63,-7.49,-7.49,0,*5D
1521226925.91,50309,8.88,71820.3,-6.63,-7.49,-7.49,0,*5C
1521226927.16,50310,8.88,71812.3,-6.63,-7.57,-7.49,0,*5B
1521226928.39,50311,8.88,71820.3,-6.61,-7.57,-7.49,0,*58
1521226929.61,50312,8.88,71818.0,-6.63,-7.49,-7.49,0,*56
1521226930.8,50313,8.88,71812.5,-6.65,-7.53,-7.53,0,*51
1521226932.02,50314,8.88,71812.0,-6.63,-7.49,-7.49,0,*50
1521226933.26,50315,8.88,71816.0,-6.63,-7.49,-7.57,0,*5E
1521226934.48,50316,8.88,71812.5,-6.63,-7.49,-7.49,0,*52
1521226935.7,50317,8.88,71812.3,-6.63,-7.49,-7.49,0,*53
1521226936.92,50318,8.88,71818.5,-6.63,-7.49,-7.49,0,*5C
1521226938.11,50319,8.88,71816.3,-6.65,-7.53,-7.53,0,*5B
1521226939.3,50320,8.88,71818.8,-6.65,-7.53,-7.53,0,*51
1521226940.53,50321,8.88,71812.0,-6.65,-7.61,-7.53,0,*51
1521226941.72,50322,8.88,71812.8,-6.65,-7.53,-7.53,0,*53
1521226942.91,50323,8.88,71818.0,-6.65,-7.53,-7.53,0,*52
1521226944.11,50324,8.88,71814.0,-6.65,-7.53,-7.53,0,*55
1521226945.3,50325,8.88,71812.5,-6.65,-7.53,-7.53,0,*54
1521226946.49,50326,8.88,71810.5,-6.65,-7.53,-7.53,0,*57
1521226947.68,50327,8.88,71804.8,-6.65,-7.53,-7.53,0,*56
1521226948.91,50328,8.88,71808.0,-6.67,-7.53,-7.53,0,*5B
1521226950.1,50329,8.88,71810.0,-6.65,-7.53,-7.53,0,*58
1521226951.32,50330,8.88,71814.8,-6.65,-7.61,-7.53,0,*51
1521226952.54,50331,8.88,71818.0,-6.67,-7.53,-7.53,0,*53
1521226953.73,50332,8.88,71812.5,-6.65,-7.53,-7.53,0,*52
1521226954.93,50333,8.88,71806.3,-6.61,-7.49,-7.49,0,*57
1521226956.14,50334,8.88,71804.5,-6.63,-7.49,-7.49,0,*52
1521226957.34,50335,8.88,71808.0,-6.65,-7.53,-7.53,0,*55
1521226958.56,50336,8.88,71810.5,-6.65,-7.61,-7.53,0,*57
1521226959.78,50337,8.88,71814.8,-6.65,-7.61,-7.53,0,*56
1521226960.97,50338,8.88,71814.8,-6.65,-7.53,-7.53,0,*58
1521226962.17,50339,8.88,71814.8,-6.65,-7.53,-7.53,0,*59
1521226963.36,50340,8.88,71814.8,-6.65,-7.53,-7.53,0,*57
1521226964.55,50341,8.88,71810.5,-6.65,-7.53,-7.53,0,*56
1521226965.75,50342,8.88,71812.3,-6.65,-7.53,-7.49,0,*5E
1521226966.94,50343,8.88,71816.0,-6.65,-7.53,-7.53,0,*54
1521226968.14,50344,8.88,71812.5,-6.65,-7.53,-7.53,0,*53
1521226969.36,50345,8.88,71816.3,-6.65,-7.61,-7.53,0,*53
1521226970.55,50346,8.88,71808.8,-6.65,-7.53,-7.53,0,*51
1521226971.77,50347,8.88,71810.5,-6.63,-7.49,-7.49,0,*56
1521226972.99,50348,8.88,71806.8,-6.65,-7.61,-7.53,0,*5E
1521226974.18,50349,8.88,71802.8,-6.65,-7.53,-7.53,0,*5E
1521226975.38,50350,8.88,71800.5,-6.65,-7.53,-7.53,0,*56
1521226976.57,50351,8.88,71800.5,-6.65,-7.53,-7.53,0,*57
1521226977.76,50352,8.88,71804.8,-6.65,-7.53,-7.53,0,*54
1521226978.96,50353,8.88,71810.0,-6.65,-7.53,-7.53,0,*55
1521226980.15,50354,8.88,71810.8,-6.65,-7.53,-7.53,0,*52
1521226981.37,50355,8.88,71814.0,-6.65,-7.61,-7.53,0,*52
1521226982.59,50356,8.88,71814.8,-6.65,-7.61,-7.53,0,*51
1521226983.79,50357,8.88,71814.0,-6.65,-7.53,-7.53,0,*51
1521226985.04,50358,8.88,71814.3,-6.67,-7.61,-7.53,0,*5D
1521226986.23,50359,8.88,71814.8,-6.65,-7.53,-7.53,0,*5F
1521226987.42,50360,8.88,71812.3,-6.65,-7.53,-7.53,0,*55
1521226988.68,50361,8.88,71820.5,-6.65,-7.61,-7.61,0,*54
1521226989.87,50362,8.88,71822.0,-6.65,-7.53,-7.53,0,*57
1521226991.07,50363,8.88,71820.8,-6.65,-7.53,-7.53,0,*56
1521226992.26,50364,8.88,71818.8,-6.65,-7.53,-7.53,0,*51
1521226993.45,50365,8.88,71820.0,-6.65,-7.53,-7.53,0,*50
1521226994.67,50366,8.88,71816.5,-6.65,-7.61,-7.53,0,*52
1521226995.87,50367,8.88,71820.3,-6.65,-7.53,-7.53,0,*52
1521226997.06,50368,8.88,71822.0,-6.65,-7.53,-7.53,0,*5D
1521226998.28,50369,8.88,71820.0,-6.67,-7.53,-7.53,0,*5E
1521226999.5,50370,8.88,71820.5,-6.65,-7.61,-7.53,0,*55
1521227000.73,50371,8.88,71820.0,-6.65,-7.53,-7.61,0,*54
1521227001.92,50372,8.88,71818.5,-6.65,-7.53,-7.53,0,*56
1521227003.17,50373,8.88,71816.3,-6.67,-7.65,-7.53,0,*50
1521227004.36,50374,8.88,71822.5,-6.65,-7.53,-7.53,0,*50
1521227005.56,50375,8.88,71826.5,-6.65,-7.53,-7.53,0,*51
1521227006.81,50376,8.88,71824.0,-6.65,-7.61,-7.61,0,*52
1521227008.01,50377,8.88,71824.0,-6.65,-7.53,-7.53,0,*53
1521227009.2,50378,8.88,71824.3,-6.65,-7.53,-7.53,0,*5C
1521227010.39,50379,8.88,71824.3,-6.65,-7.53,-7.53,0,*5D
1521227011.59,50380,8.88,71822.0,-6.65,-7.53,-7.53,0,*5B
1521227012.81,50381,8.88,71820.8,-6.67,-7.53,-7.53,0,*58
1521227014.0,50382,8.88,71826.3,-6.65,-7.53,-7.53,0,*59
1521227015.19,50383,8.88,71822.8,-6.65,-7.53,-7.53,0,*58
1521227016.39,50384,8.88,71826.0,-6.65,-7.53,-7.53,0,*5F
1521227017.58,50385,8.88,71820.8,-6.65,-7.53,-7.53,0,*5E
1521227018.8,50386,8.88,71822.0,-6.67,-7.53,-7.53,0,*5F
1521227020.02,50387,8.88,71820.8,-6.67,-7.53,-7.53,0,*5E
1521227021.22,50388,8.88,71816.5,-6.65,-7.53,-7.53,0,*53
1521227022.41,50389,8.88,71818.5,-6.65,-7.53,-7.53,0,*52
1521227023.6,50390,8.88,71816.3,-6.65,-7.53,-7.53,0,*5A
1521227024.83,50391,8.88,71814.8,-6.65,-7.53,-7.61,0,*5A
1521227026.02,50392,8.88,71816.5,-6.65,-7.53,-7.53,0,*58
1521227027.27,50393,8.88,71818.0,-6.67,-7.61,-7.53,0,*5A
1521227028.46,50394,8.88,71816.5,-6.65,-7.53,-7.53,0,*5E
1521227029.66,50395,8.88,71816.3,-6.65,-7.53,-7.53,0,*5F
1521227030.85,50396,8.88,71820.3,-6.65,-7.53,-7.53,0,*5C
1521227032.04,50397,8.88,71816.5,-6.65,-7.53,-7.53,0,*5D
1521227033.27,50398,8.88,71820.0,-6.65,-7.61,-7.53,0,*53
1521227034.46,50399,8.88,71816.3,-6.65,-7.53,-7.53,0,*53
1521227035.68,50400,8.88,71812.5,-6.67,-7.53,-7.53,0,*56
1521227036.9,50401,8.88,71818.5,-6.65,-7.61,-7.53,0,*54
1521227038.09,50402,8.88,71816.3,-6.65,-7.53,-7.53,0,*56
1521227039.35,50403,8.88,71818.3,-6.67,-7.53,-7.61,0,*54
1521227040.54,50404,8.88,71818.0,-6.65,-7.53,-7.53,0,*50
1521227041.76,50405,8.88,71818.3,-6.65,-7.61,-7.53,0,*50
1521227042.96,50406,8.88,71818.5,-6.65,-7.53,-7.53,0,*52
1521227044.15,50407,8.88,71820.3,-6.65,-7.53,-7.53,0,*53
1521227045.34,50408,8.88,71820.0,-6.65,-7.53,-7.53,0,*5C
1521227046.54,50409,8.88,71816.8,-6.65,-7.53,-7.53,0,*5D
1521227047.73,50410,8.88,71822.3,-6.65,-7.53,-7.53,0,*55
1521227048.92,50411,8.88,71820.0,-6.65,-7.53,-7.53,0,*54
1521227050.15,50412,8.88,71820.5,-6.65,-7.53,-7.61,0,*56
1521227051.34,50413,8.88,71820.0,-6.65,-7.53,-7.53,0,*56
1521227052.59,50414,8.88,71818.3,-6.67,-7.61,-7.53,0,*52
1521227053.79,50415,8.88,71818.3,-6.65,-7.53,-7.53,0,*50
1521227055.04,50416,8.88,71810.0,-6.67,-7.53,-7.61,0,*50
1521227056.23,50417,8.88,71810.8,-6.65,-7.53,-7.53,0,*52
1521227057.45,50418,8.88,71810.3,-6.65,-7.61,-7.53,0,*5C
1521227058.65,50419,8.88,71812.5,-6.65,-7.53,-7.53,0,*5C
1521227059.87,50420,8.88,71810.8,-6.67,-7.53,-7.53,0,*54
1521227061.06,50421,8.88,71812.3,-6.65,-7.53,-7.53,0,*57
1521227062.28,50422,8.88,71812.8,-6.67,-7.53,-7.53,0,*56
1521227063.5,50423,8.88,71818.5,-6.65,-7.61,-7.53,0,*54
1521227064.7,50424,8.88,71818.5,-6.65,-7.53,-7.53,0,*52
1521227065.92,50425,8.88,71816.3,-6.67,-7.53,-7.53,0,*51
1521227067.14,50426,8.88,71816.8,-6.67,-7.53,-7.53,0,*52
1521227068.36,50427,8.88,71812.0,-6.67,-7.53,-7.53,0,*53
1521227069.64,50428,8.88,71818.5,-6.67,-7.61,-7.61,0,*5C
1521227070.83,50429,8.88,71812.8,-6.65,-7.53,-7.53,0,*5F
1521227072.03,50430,8.88,71812.3,-6.65,-7.53,-7.53,0,*57
1521227073.25,50431,8.88,71816.3,-6.65,-7.61,-7.53,0,*57
1521227074.44,50432,8.88,71816.8,-6.65,-7.53,-7.53,0,*55
1521227075.64,50433,8.88,71814.8,-6.65,-7.53,-7.53,0,*54
1521227076.89,50434,8.88,71808.8,-6.67,-7.53,-7.61,0,*50
1521227078.11,50435,8.88,71810.5,-6.67,-7.53,-7.53,0,*50
1521227079.36,50436,8.88,71808.0,-6.67,-7.53,-7.61,0,*52
1521227080.56,50437,8.88,71812.5,-6.65,-7.53,-7.53,0,*50
1521227081.75,50438,8.88,71814.0,-6.65,-7.53,-7.53,0,*5F
1521227082.94,50439,8.88,71818.5,-6.65,-7.53,-7.53,0,*5E
1521227084.17,50440,8.88,71812.3,-6.65,-7.53,-7.61,0,*51
1521227085.39,50441,8.88,71814.8,-6.67,-7.53,-7.53,0,*53
1521227086.61,50442,8.88,71808.3,-6.65,-7.61,-7.53,0,*53
1521227087.81,50443,8.88,71810.5,-6.65,-7.53,-7.49,0,*58
1521227089.03,50444,8.88,71810.5,-6.65,-7.61,-7.53,0,*55
1521227090.22,50445,8.88,71808.5,-6.65,-7.53,-7.53,0,*55
1521227091.42,50446,8.88,71810.5,-6.65,-7.53,-7.53,0,*56
1521227092.61,50447,8.88,71806.0,-6.65,-7.53,-7.53,0,*57
1521227093.83,50448,8.88,71804.3,-6.67,-7.53,-7.53,0,*5A
1521227095.08,50449,8.88,71804.5,-6.67,-7.61,-7.49,0,*51
1521227096.31,50450,8.88,71810.0,-6.65,-7.61,-7.53,0,*50
1521227097.53,50451,8.88,71814.3,-6.67,-7.53,-7.53,0,*52
1521227098.75,50452,8.88,71810.3,-6.67,-7.53,-7.53,0,*51
1521227099.97,50453,8.88,71814.8,-6.67,-7.53,-7.53,0,*50
1521227101.21,50454,8.88,71810.3,-6.67,-7.61,-7.53,0,*56
1521227102.41,50455,8.88,71808.8,-6.65,-7.53,-7.53,0,*54
1521227103.63,50456,8.88,71810.8,-6.67,-7.53,-7.53,0,*55
1521227104.85,50457,8.88,71814.8,-6.67,-7.53,-7.53,0,*54
1521227106.07,50458,8.88,71810.5,-6.67,-7.53,-7.53,0,*5B
1521227107.3,50459,8.88,71802.8,-6.65,-7.53,-7.61,0,*59
1521227108.52,50460,8.88,71790.0,-6.67,-7.53,-7.53,0,*50
1521227109.74,50461,8.88,71790.8,-6.67,-7.53,-7.53,0,*51
1521227110.96,50462,8.88,71794.8,-6.67,-7.53,-7.53,0,*52
1521227112.18,50463,8.88,71796.0,-6.67,-7.53,-7.53,0,*53
1521227113.4,50464,8.88,71798.0,-6.67,-7.53,-7.53,0,*54
1521227114.65,50465,8.88,71800.8,-6.67,-7.53,-7.61,0,*54
1521227115.87,50466,8.88,71806.8,-6.67,-7.53,-7.53,0,*56
1521227117.12,50467,8.88,71806.5,-6.67,-7.61,-7.53,0,*56
1521227118.31,50468,8.88,71808.8,-6.65,-7.53,-7.53,0,*5A
1521227119.57,50469,8.88,71816.0,-6.67,-7.53,-7.61,0,*58
1521227120.79,50470,8.88,71812.3,-6.65,-7.61,-7.53,0,*52
1521227122.04,50471,8.88,71814.0,-6.67,-7.53,-7.61,0,*51
1521227123.26,50472,8.88,71818.5,-6.67,-7.53,-7.53,0,*53
1521227124.48,50473,8.88,71814.8,-6.65,-7.61,-7.53,0,*51
1521227125.68,50474,8.88,71814.0,-6.65,-7.53,-7.53,0,*57
1521227126.93,50475,8.88,71806.5,-6.67,-7.61,-7.53,0,*55
1521227128.17,50476,8.88,71804.8,-6.67,-7.61,-7.53,0,*56
1521227129.42,50477,8.88,71806.8,-6.67,-7.61,-7.53,0,*57
1521227130.62,50478,8.88,71810.3,-6.65,-7.53,-7.53,0,*5B
1521227131.84,50479,8.88,71810.8,-6.67,-7.53,-7.53,0,*58
1521227133.06,50480,8.88,71814.3,-6.67,-7.53,-7.53,0,*5E
1521227134.28,50481,8.88,71810.5,-6.65,-7.61,-7.53,0,*5C
1521227135.47,50482,8.88,71810.5,-6.65,-7.53,-7.53,0,*5E
1521227136.66,50483,8.88,71808.3,-6.65,-7.53,-7.53,0,*5F
1521227137.88,50484,8.88,71812.5,-6.67,-7.53,-7.53,0,*5A
1521227139.14,50485,8.88,71808.3,-6.65,-7.61,-7.61,0,*59
1521227140.36,50486,8.88,71812.3,-6.67,-7.53,-7.53,0,*58
1521227141.61,50487,8.88,71814.0,-6.67,-7.61,-7.53,0,*58
1521227142.86,50488,8.88,71814.0,-6.67,-7.61,-7.53,0,*57
1521227144.08,50489,8.88,71812.8,-6.65,-7.53,-7.61,0,*54
1521227145.3,50490,8.88,71812.0,-6.67,-7.53,-7.53,0,*5F
1521227146.59,50491,8.88,71814.8,-6.67,-7.61,-7.61,0,*5E
1521227147.81,50492,8.88,71818.0,-6.67,-7.53,-7.53,0,*5D
1521227149.03,50493,8.88,71820.5,-6.67,-7.53,-7.53,0,*5C
1521227150.25,50494,8.88,71814.0,-6.65,-7.61,-7.53,0,*58
1521227151.5,50495,8.88,71812.0,-6.67,-7.61,-7.53,0,*5B
1521227152.72,50496,8.88,71818.3,-6.67,-7.53,-7.53,0,*59
1521227153.97,50497,8.88,71818.8,-6.67,-7.61,-7.53,0,*59
1521227155.16,50498,8.88,71806.0,-6.65,-7.53,-7.53,0,*55
1521227156.38,50499,8.88,71810.5,-6.67,-7.53,-7.53,0,*56
1521227157.63,50500,8.88,71814.8,-6.67,-7.53,-7.61,0,*56
1521227158.85,50501,8.88,71812.5,-6.67,-7.53,-7.53,0,*56
1521227160.07,50502,8.88,71812.5,-6.67,-7.53,-7.53,0,*55
1521227161.3,50503,8.88,71818.0,-6.65,-7.61,-7.53,0,*57
1521227162.52,50504,8.88,71818.8,-6.67,-7.53,-7.53,0,*53
1521227163.74,50505,8.88,71814.3,-6.67,-7.53,-7.53,0,*52
1521227164.99,50506,8.88,71810.0,-6.67,-7.61,-7.53,0,*50
1521227166.24,50507,8.88,71814.3,-6.67,-7.53,-7.61,0,*51
1521227167.46,50508,8.88,71812.5,-6.67,-7.53,-7.53,0,*5F
1521227168.68,50509,8.88,71812.5,-6.67,-7.53,-7.53,0,*5E
1521227169.9,50510,8.88,71810.5,-6.67,-7.53,-7.53,0,*56
1521227171.09,50511,8.88,71814.8,-6.65,-7.53,-7.53,0,*55
1521227172.31,50512,8.88,71810.5,-6.67,-7.53,-7.53,0,*54
1521227173.56,50513,8.88,71808.3,-6.67,-7.61,-7.53,0,*54
1521227174.78,50514,8.88,71810.0,-6.67,-7.53,-7.53,0,*52
1521227176.0,50515,8.88,71808.5,-6.65,-7.61,-7.53,0,*50
1521227177.22,50516,8.88,71814.8,-6.67,-7.53,-7.53,0,*50
1521227178.48,50517,8.88,71814.0,-6.67,-7.53,-7.61,0,*50
1521227179.73,50518,8.88,71814.3,-6.67,-7.53,-7.61,0,*5F
1521227180.95,50519,8.88,71810.3,-6.67,-7.53,-7.53,0,*5F
1521227182.2,50520,8.88,71806.3,-6.67,-7.61,-7.53,0,*54
1521227183.45,50521,8.88,71804.0,-6.67,-7.53,-7.61,0,*55
1521227184.71,50522,8.88,71814.5,-6.69,-7.57,-7.57,0,*59
1521227185.96,50523,8.88,71814.3,-6.69,-7.65,-7.57,0,*59
1521227187.18,50524,8.88,71808.8,-6.67,-7.53,-7.53,0,*51
1521227188.4,50525,8.88,71804.8,-6.67,-7.53,-7.53,0,*50
1521227189.62,50526,8.81,71804.0,-6.67,-7.53,-7.53,0,*53
1521227190.84,50527,8.88,71804.5,-6.67,-7.53,-7.53,0,*52
1521227192.06,50528,8.88,71802.5,-6.67,-7.53,-7.53,0,*5D
1521227193.28,50529,8.88,71800.0,-6.67,-7.53,-7.53,0,*5C
1521227194.5,50530,8.88,71800.5,-6.67,-7.53,-7.53,0,*54
1521227195.75,50531,8.88,71810.3,-6.67,-7.61,-7.53,0,*54
1521227197.0,50532,8.88,71810.0,-6.67,-7.61,-7.53,0,*57
1521227198.22,50533,8.88,71814.3,-6.65,-7.61,-7.53,0,*54
1521227199.45,50534,8.88,71818.5,-6.65,-7.53,-7.61,0,*53
1521227200.67,50535,8.88,71816.3,-6.67,-7.53,-7.53,0,*51
1521227201.92,50536,8.88,71812.8,-6.67,-7.61,-7.53,0,*53
1521227203.2,50537,8.88,71818.0,-6.67,-7.61,-7.61,0,*53
1521227204.42,50538,8.88,71818.5,-6.67,-7.53,-7.53,0,*5C
1521227205.64,50539,8.88,71822.0,-6.67,-7.53,-7.53,0,*5D
1521227206.87,50540,8.88,71816.5,-6.65,-7.53,-7.61,0,*50
1521227208.09,50541,8.88,71818.5,-6.67,-7.53,-7.53,0,*52
1521227209.31,50542,8.88,71814.3,-6.67,-7.53,-7.53,0,*51
1521227210.53,50543,8.88,71802.8,-6.67,-7.53,-7.53,0,*50
1521227211.75,50544,8.88,71808.0,-6.67,-7.53,-7.49,0,*5C
1521227212.98,50545,8.88,71808.3,-6.67,-7.53,-7.49,0,*5D
1521227214.2,50546,8.88,71804.8,-6.67,-7.53,-7.53,0,*55
1521227215.42,50547,8.88,71810.0,-6.67,-7.53,-7.53,0,*54
1521227216.67,50548,8.88,71808.3,-6.67,-7.61,-7.53,0,*5A
1521227217.91,50549,8.88,71804.8,-6.67,-7.61,-7.53,0,*5B
1521227219.11,50550,8.88,71806.5,-6.65,-7.53,-7.53,0,*50
1521227220.36,50551,8.88,71810.0,-6.67,-7.61,-7.53,0,*52
1521227221.6,50552,8.88,71808.3,-6.67,-7.61,-7.53,0,*51
1521227222.82,50553,8.81,71808.8,-6.67,-7.53,-7.53,0,*51
1521227224.08,50554,8.88,71808.0,-6.67,-7.53,-7.61,0,*57
1521227225.33,50555,8.88,71812.8,-6.67,-7.61,-7.53,0,*56
1521227226.55,50556,8.88,71808.5,-6.67,-7.53,-7.53,0,*54
1521227227.8,50557,8.88,71804.3,-6.69,-7.57,-7.57,0,*5B
1521227229.05,50558,8.88,71804.8,-6.67,-7.61,-7.53,0,*5B
1521227230.27,50559,8.88,71804.5,-6.67,-7.53,-7.53,0,*5B
1521227231.49,50560,8.88,71808.3,-6.67,-7.53,-7.53,0,*51
1521227232.71,50561,8.88,71808.0,-6.67,-7.53,-7.53,0,*50
1521227233.96,50562,8.88,71810.3,-6.67,-7.61,-7.53,0,*52
1521227235.18,50563,8.88,71806.8,-6.67,-7.53,-7.53,0,*52
1521227236.43,50564,8.81,71806.8,-6.67,-7.61,-7.53,0,*54
1521227237.68,50565,8.88,71810.8,-6.69,-7.57,-7.57,0,*5A
1521227238.94,50566,8.88,71810.5,-6.69,-7.57,-7.57,0,*59
1521227240.2,50567,8.88,71814.5,-6.69,-7.57,-7.65,0,*59
1521227241.45,50568,8.88,71816.3,-6.73,-7.57,-7.57,0,*5C
1521227242.71,50569,8.88,71816.5,-6.69,-7.57,-7.57,0,*56
1521227243.97,50570,8.81,71816.8,-6.69,-7.57,-7.57,0,*5E
1521227245.22,50571,8.88,71818.5,-6.69,-7.57,-7.57,0,*5F
1521227246.48,50572,8.88,71818.8,-6.69,-7.57,-7.57,0,*5C
1521227247.73,50573,8.88,71814.0,-6.69,-7.57,-7.57,0,*5D
1521227248.99,50574,8.88,71816.0,-6.69,-7.57,-7.57,0,*5A
1521227250.24,50575,8.88,71810.3,-6.69,-7.57,-7.57,0,*5B
1521227251.5,50576,8.88,71814.3,-6.69,-7.65,-7.57,0,*59
1521227252.75,50577,8.88,71818.0,-6.69,-7.57,-7.57,0,*59
1521227254.01,50578,8.88,71814.8,-6.67,-7.53,-7.61,0,*59
1521227255.26,50579,8.88,71812.3,-6.67,-7.53,-7.57,0,*5D
1521227256.51,50580,8.88,71810.8,-6.69,-7.57,-7.57,0,*51
1521227257.77,50581,8.88,71812.5,-6.69,-7.57,-7.57,0,*50
1521227259.03,50582,8.88,71810.8,-6.69,-7.57,-7.57,0,*53
1521227260.28,50583,8.88,71808.5,-6.69,-7.57,-7.57,0,*52
1521227261.53,50584,8.88,71804.3,-6.69,-7.65,-7.57,0,*54
1521227262.75,50585,8.88,71804.3,-6.67,-7.53,-7.53,0,*5A
1521227263.97,50586,8.88,71804.3,-6.67,-7.53,-7.53,0,*59
1521227265.23,50587,8.81,71800.5,-6.69,-7.57,-7.57,0,*56
1521227266.48,50588,8.88,71814.5,-6.69,-7.65,-7.57,0,*58
1521227267.73,50589,8.88,71810.8,-6.69,-7.65,-7.57,0,*59
1521227268.99,50590,8.81,71808.5,-6.69,-7.57,-7.57,0,*50
1521227270.24,50591,8.88,71804.8,-6.67,-7.53,-7.61,0,*5E
1521227271.46,50592,8.88,71802.3,-6.67,-7.53,-7.53,0,*5C
1521227272.68,50593,8.88,71800.8,-6.67,-7.53,-7.53,0,*5D
1521227273.94,50594,8.88,71802.5,-6.69,-7.57,-7.57,0,*54
1521227275.19,50595,8.88,71802.0,-6.69,-7.65,-7.57,0,*54
1521227276.45,50596,8.88,71802.8,-6.69,-7.57,-7.57,0,*56
1521227277.67,50597,8.88,71806.8,-6.67,-7.53,-7.53,0,*59
1521227278.89,50598,8.88,71802.5,-6.67,-7.53,-7.53,0,*56
1521227280.11,50599,8.88,71802.3,-6.67,-7.53,-7.53,0,*57
1521227281.37,50600,8.88,71802.3,-6.69,-7.57,-7.57,0,*5A
1521227282.62,50601,8.88,71804.0,-6.69,-7.57,-7.57,0,*5B
1521227283.88,50602,8.88,71800.8,-6.69,-7.57,-7.57,0,*58
1521227285.13,50603,8.88,71802.5,-6.69,-7.57,-7.57,0,*59
1521227286.39,50604,8.88,71802.8,-6.73,-7.57,-7.57,0,*55
1521227287.65,50605,8.88,71802.8,-6.69,-7.57,-7.57,0,*5F
1521227288.9,50606,8.88,71800.8,-6.69,-7.65,-7.57,0,*5D
1521227290.16,50607,8.88,71800.0,-6.69,-7.57,-7.57,0,*5D
1521227291.41,50608,8.88,71812.5,-6.69,-7.57,-7.57,0,*52
1521227292.67,50609,8.88,71808.8,-6.69,-7.57,-7.57,0,*53
1521227293.92,50610,8.88,71806.3,-6.69,-7.65,-7.57,0,*5A
1521227295.18,50611,8.88,71810.3,-6.73,-7.57,-7.57,0,*51
1521227296.43,50612,8.88,71810.0,-6.69,-7.57,-7.57,0,*59
1521227297.69,50613,8.88,71810.0,-6.69,-7.57,-7.65,0,*59
1521227298.95,50614,8.88,71808.0,-6.69,-7.57,-7.57,0,*5F
1521227300.2,50615,8.88,71808.5,-6.69,-7.57,-7.57,0,*5E
1521227301.46,50616,8.88,71814.5,-6.69,-7.57,-7.57,0,*5D
1521227302.71,50617,8.88,71818.3,-6.69,-7.65,-7.57,0,*5D
1521227303.96,50618,8.88,71812.8,-6.69,-7.65,-7.57,0,*52
1521227305.21,50619,8.88,71808.5,-6.67,-7.61,-7.53,0,*5D
1521227306.43,50620,8.88,71814.5,-6.67,-7.53,-7.53,0,*56
1521227307.65,50621,8.88,71810.5,-6.67,-7.53,-7.53,0,*57
1521227308.87,50622,8.88,71808.8,-6.67,-7.53,-7.53,0,*54
1521227310.09,50623,8.88,71812.3,-6.67,-7.53,-7.53,0,*55
1521227311.35,50624,8.88,71814.0,-6.69,-7.57,-7.65,0,*5D
1521227312.6,50625,8.88,71814.0,-6.69,-7.57,-7.57,0,*5D
1521227313.86,50626,8.88,71814.5,-6.69,-7.57,-7.57,0,*5E